Tracking 19224 objects as of 22-Jul-2018
HD Live streaming from Space Station
objects crossing your sky now

FENGYUN 1C DEB

Track FENGYUN 1C DEB now!
10-day predictions


NORAD ID: 31613
Int'l Code: 1999-025BZT
Perigee: 787.5 km
Apogee: 1,330.8 km
Inclination: 98.5 °
Period: 106.2 minutes
Semi major axis: 7430 km
RCS: 0.0083 m2 (small)
Launch date: May 10, 1999
Source: People's Republic of China (PRC)
Launch site: Taiyaun Space Center, China (TSC)

Note: This is SATELLITE DEBRIS
aabbcc
Your satellite tracking list
Your tracking list is empty




NASA's NSSDC Master Catalog

Two Line Element Set (TLE):
1 31613U 99025BZT 18201.39530265 +.00000300 +00000-0 +31584-3 0  9991
2 31613 098.4512 359.5739 0365567 348.4291 010.8613 13.55519035550869
Source of the keplerian elements: AFSPC